Data for 06/28/2017

Time Sea-Level Adjusted Pressure Absolute Pressure Temperature Relative Humidity Dew Point   
(mb) (inHg) (mb) (inHg) (C) (F) (%) (C) (F)
00:05 1015 29.97 845 24.95 13.7 56.7 63 6.9 44.3
00:10 1015 29.97 845 24.95 13.5 56.2 63 6.7 44.1
00:15 1015 29.97 845 24.95 13.3 55.9 65 6.9 44.5
00:20 1015 29.97 844 24.92 13 55.4 66 6.8 44.3
00:25 1015 29.97 844 24.92 12.9 55.2 66 6.8 44.3
00:30 1015 29.97 844 24.92 12.8 55 67 6.8 44.3
00:35 1015 29.97 845 24.95 12.7 54.8 67 6.8 44.3
00:40 1015 29.97 845 24.95 12.7 54.8 68 6.9 44.4
00:45 1015 29.97 844 24.92 12.6 54.7 68 7 44.6
00:50 1015 29.97 845 24.95 12.4 54.3 70 7 44.7
00:55 1015 29.97 844 24.92 12.3 54.1 70 6.9 44.4
01:00 1015 29.97 844 24.92 12.1 53.9 70 6.9 44.3
01:05 1015 29.97 844 24.92 12 53.6 71 6.9 44.4
01:10 1015 29.97 844 24.92 11.7 53 72 6.8 44.2
01:15 1015 29.97 844 24.92 11.7 53 72 6.7 44.1
01:20 1015 29.97 844 24.92 11.6 52.9 68 6 42.8
01:25 1015 29.97 844 24.92 12.1 53.8 67 6.2 43.1
01:30 1015 29.97 844 24.92 12.1 53.8 67 6.3 43.3
01:35 1015 29.97 844 24.92 12.4 54.3 64 5.9 42.5
01:40 1015 29.97 844 24.92 12.5 54.6 65 6.2 43.2
01:45 1015 29.97 844 24.92 12.2 53.9 68 6.4 43.6
01:50 1015 29.97 844 24.92 11.6 52.8 71 6.5 43.7
01:55 1015 29.97 844 24.92 11 51.8 72 6.2 43.2
02:00 1015 29.97 844 24.92 10.7 51.3 73 6.2 43.1
02:05 1015 29.97 844 24.92 10.6 51 73 5.9 42.6
02:10 1015 29.97 844 24.92 10.6 51.1 72 5.8 42.4
02:15 1015 29.97 844 24.92 10.6 51.2 71 5.7 42.2
02:20 1015 29.97 844 24.92 10.9 51.7 71 5.8 42.5
02:25 1015 29.97 844 24.92 10.9 51.6 71 5.9 42.7
02:30 1015 29.97 844 24.92 10.7 51.3 71 5.8 42.4
02:35 1015 29.97 844 24.92 10.6 51.2 71 5.6 42
02:40 1015 29.97 844 24.92 10.6 51.1 72 5.8 42.4
02:45 1015 29.97 844 24.92 10.5 50.8 72 5.7 42.3
02:50 1015 29.97 844 24.92 10.4 50.7 70 5.2 41.4
02:55 1014 29.94 844 24.92 10.5 50.9 71 5.6 42.1
03:00 1014 29.94 844 24.92 10.3 50.6 71 5.4 41.8
03:05 1014 29.94 844 24.92 10.3 50.5 68 4.6 40.3
03:10 1014 29.94 843 24.89 10.7 51.3 69 5.3 41.6
03:15 1014 29.94 843 24.89 10.6 51.2 69 5.3 41.5
03:20 1014 29.94 844 24.92 10.5 51 70 5.4 41.7
03:25 1014 29.94 843 24.89 10.3 50.5 72 5.4 41.7
03:30 1014 29.94 843 24.89 10 50 72 5.3 41.5
03:35 1014 29.94 843 24.89 9.9 49.7 73 5.3 41.5
03:40 1014 29.94 843 24.89 9.6 49.2 76 5.5 41.9
03:45 1014 29.94 843 24.89 9.1 48.4 76 5.2 41.3
03:50 1014 29.94 843 24.89 9.2 48.5 75 5.1 41.1
03:55 1014 29.94 843 24.89 9.2 48.6 74 4.9 40.8
04:00 1014 29.94 843 24.89 9.4 48.9 72 4.7 40.5
04:05 1014 29.94 843 24.89 9.5 49.2 73 4.9 40.9
04:10 1014 29.94 843 24.89 9.6 49.3 71 4.7 40.4
04:15 1014 29.94 843 24.89 9.8 49.7 70 4.7 40.5
04:20 1014 29.94 843 24.89 9.9 49.7 70 4.6 40.3